Flag for Norway Weather past 2 weeks in Randaberg, Norway

Now
57 °F

Overcast.


Feels Like: 57 °F
Forecast: 56 / 64 °F
Wind: 2 mph from Southeast

Location: Stavanger / Sola

Current Time: Sep 3, 2014 at 7:32:09 AM

Latest Report: Sep 3, 2014 at 6:00 AM


Visibility: 19 mi

Pressure: 30.34 "Hg

Humidity: 90%

Dew point: 54 °F

Location of RandabergLocation

Historic Weather in Randaberg — Graph

°F

Randaberg temperature yesterday

Maximum temperature yesterday: 64 °F (at 3:00 PM)
Minimum temperature yesterday: 56 °F (at 11:00 PM)
Average temperature yesterday: 60 °F

Past Weeks' High & Low Weather Summary

 TemperatureHumidityPressure
High69 °F (Aug 31, 3:00 PM)98% (Aug 27, 6:00 AM)30.34 "Hg (Aug 27, 6:00 AM)
Low48 °F (Aug 22, 6:00 AM)58% (Aug 28, 5:00 PM)29.26 "Hg (Aug 19, 6:00 AM)
Average57 °F80%29.83 "Hg
* Reported Aug 19 6:00 AM — Sep 3 6:00 AM, Randaberg, Weather by CustomWeather, © 2014

Note: Actual official high and low records may vary slightly from our data, if they occured in-between our weather recording intervals... More about our weather records

Advertising

Randaberg weather history for previous 24 hours

 ConditionsComfort  
Time TempWeatherWind HumidityBarometerVisibility
6:00 AM
Sep 3
57 °FOvercast.2 mph90%30.34 "Hg19 mi
5:00 AM56 °FPassing clouds.1 mph92%30.34 "Hg19 mi
4:00 AM57 °FOvercast.1 mph92%30.34 "Hg16 mi
3:00 AM56 °FOvercast.1 mph92%30.34 "Hg19 mi
2:00 AM56 °FOvercast.3 mph93%30.34 "Hg12 mi
1:00 AM55 °FOvercast.1 mph94%30.33 "Hg10 mi
12:00 AM55 °FClear.2 mph93%30.32 "Hg8 mi
11:00 PM
Sep 2
56 °FPassing clouds.1 mph92%30.32 "Hg11 mi
10:00 PM58 °FOvercast.1 mph90%30.31 "Hg16 mi
9:00 PM59 °FOvercast.1 mph88%30.30 "Hg25 mi
8:00 PM61 °FScattered clouds.1 mph82%30.30 "Hg28 mi
7:00 PM62 °FSunny.2 mph80%30.29 "Hg25 mi
6:00 PM63 °FPassing clouds.5 mph78%30.29 "Hg28 mi
5:00 PM63 °FScattered clouds.3 mph74%30.28 "Hg19 mi
4:00 PM63 °FPartly sunny.5 mph79%30.28 "Hg19 mi
3:00 PM64 °FOvercast.5 mph78%30.28 "Hg19 mi
2:00 PM63 °FPartly sunny.5 mph78%30.28 "Hg15 mi
1:00 PM62 °FOvercast.3 mph83%30.27 "Hg18 mi
12:00 PM61 °FOvercast.3 mph85%30.26 "Hg12 mi
11:00 AM60 °FOvercast.2 mph88%30.24 "Hg12 mi
10:00 AM60 °FOvercast.2 mph91%30.23 "Hg14 mi
9:00 AM58 °FOvercast.2 mph94%30.22 "Hg9 mi
8:00 AM58 °FOvercast.1 mph95%30.21 "Hg8 mi
7:00 AM57 °FCool.2 mph95%30.19 "Hg8 mi
Weather by CustomWeather, © 2014

See weather overviewHow to use our weather pages